Weather History for KMTJ - January, 2012

Change the Weather History Date:

Sunday, January 22, 2012

  Actual Average Record
Temperature  
Mean Temperature 33 °F 27 °F  
Max Temperature 39 °F 39 °F 54 °F (2005)
Min Temperature 26 °F 15 °F 1 °F (2007)
Degree Days  
Heating Degree Days 32 38  
Month to date heating degree days 822 864  
Since 1 July heating degree days 3397 3472  
Cooling Degree Days 0 0  
Month to date cooling degree days 0  
Year to date cooling degree days 0  
Moisture  
Dew Point 25 °F    
Average Humidity 72    
Maximum Humidity 100    
Minimum Humidity 44    
Precipitation  
Precipitation 0.03 in 0.02 in 0.08 in (2000)
Month to date precipitation 0.19 0.48  
Year to date precipitation 0.19 0.48  
Sea Level Pressure  
Sea Level Pressure 29.83 in    
Wind  
Wind Speed 7 mph (NNW)    
Max Wind Speed 22 mph    
Max Gust Speed 28 mph    
Visibility 7 miles    
Events Snow    
T = Trace of Precipitation, MM = Missing Value Source: NWS Daily Summary

Daily Weather History Graph

Daily Weather History Graph

Search for Another Location

Airport or City:

Trip Planner

Search our weather history database for the weather conditions in past years. The results will help you decide how hot, cold, wet, or windy it might be!

Date:

Astronomy

Jan. 22, 2012 Rise Set
Actual Time 7:24 AM MST 5:21 PM MST
Civil Twilight 6:56 AM MST 5:50 PM MST
Nautical Twilight 6:23 AM MST 6:22 PM MST
Astronomical Twilight 5:52 AM MST 6:54 PM MST
Moon 6:43 AM MST (1/22) 5:07 PM MST (1/22)
Length of Visible Light 10h 54m
Length of Day
9h 57m
Waning Crescent, 0% of the Moon is Illuminated
Jan 22
Waning Crescent
Jan 23
New
Jan 30
First Quarter
Feb 7
Full
Feb 14
Last Quarter

Hourly Weather History & Observations

Time (MST) Temp. Windchill Dew Point Humidity Pressure Visibility Wind Dir Wind Speed Gust Speed Precip Events Conditions
12:49 AM 33.8 °F 23.2 °F 30.2 °F 87% 29.58 in 2.0 mi NW 17.3 mph 27.6 mph 0.01 in Snow Light Snow
12:51 AM 33.8 °F 23.5 °F 30.2 °F 87% 29.58 in 1.2 mi NW 16.1 mph 27.6 mph 0.01 in Snow Light Snow
12:53 AM 33.1 °F 23.4 °F 30.0 °F 89% 29.53 in 1.0 mi NNW 13.8 mph 27.6 mph 0.02 in Snow Light Snow
1:00 AM 33.8 °F 24.8 °F 30.2 °F 87% 29.57 in 1.2 mi NNW 12.7 mph - 0.00 in Snow Light Snow
1:04 AM 33.8 °F 26.4 °F 32.0 °F 93% 29.58 in 3.0 mi NNW 9.2 mph - 0.00 in Snow Light Snow
1:09 AM 32.0 °F 24.8 °F 32.0 °F 100% 29.58 in 2.5 mi NNW 8.1 mph - 0.00 in Snow Light Snow
1:23 AM 32.0 °F 26.4 °F 32.0 °F 100% 29.58 in 3.0 mi North 5.8 mph - 0.00 in Snow Light Snow
1:31 AM 32.0 °F 23.6 °F 32.0 °F 100% 29.58 in 2.0 mi NNE 10.4 mph - 0.01 in Snow Light Snow
1:41 AM 32.0 °F - 30.2 °F 93% 29.59 in 7.0 mi North - - 0.01 in Snow Light Snow
1:53 AM 32.0 °F 25.6 °F 32.0 °F 100% 29.56 in 5.0 mi NNE 6.9 mph - 0.01 in Snow Light Snow
2:30 AM 33.8 °F 29.6 °F 32.0 °F 93% 29.63 in 9.0 mi NNW 4.6 mph - 0.00 in   Overcast
2:53 AM 33.1 °F 27.7 °F 30.9 °F 92% 29.61 in 10.0 mi NW 5.8 mph - 0.00 in   Overcast
3:53 AM 33.1 °F 22.2 °F 30.0 °F 89% 29.65 in 5.0 mi NW 17.3 mph - 0.00 in Snow Light Snow
4:53 AM 33.1 °F 24.4 °F 30.0 °F 89% 29.72 in 7.0 mi NW 11.5 mph - 0.00 in Snow Light Snow
5:53 AM 32.0 °F 22.1 °F 25.0 °F 75% 29.78 in 10.0 mi NNW 13.8 mph 20.7 mph 0.00 in   Overcast
6:53 AM 30.9 °F 26.2 °F 26.1 °F 82% 29.84 in 10.0 mi WSW 4.6 mph - N/A   Mostly Cloudy
7:53 AM 30.9 °F 22.8 °F 23.0 °F 72% 29.88 in 10.0 mi WNW 9.2 mph - N/A   Mostly Cloudy
9:53 AM 36.0 °F - 21.9 °F 57% 29.99 in 10.0 mi Calm Calm - N/A   Mostly Cloudy
10:53 AM 35.1 °F 28.6 °F 16.0 °F 46% 29.98 in 10.0 mi NNW 8.1 mph - N/A   Clear
11:53 AM 36.0 °F 32.1 °F 16.0 °F 44% 29.96 in 10.0 mi North 4.6 mph - N/A   Clear
1:53 PM 37.0 °F 30.4 °F 19.0 °F 48% 29.99 in 10.0 mi NNW 9.2 mph - N/A   Partly Cloudy
2:53 PM 37.0 °F - 18.0 °F 46% 30.02 in 10.0 mi Calm Calm - N/A   Mostly Cloudy
3:53 PM 36.0 °F - 21.0 °F 55% 30.05 in 10.0 mi Calm Calm - N/A   Overcast
5:53 PM 33.1 °F - 21.9 °F 64% 30.10 in 10.0 mi Calm Calm - N/A   Clear
6:53 PM 30.9 °F 24.3 °F 24.1 °F 76% 30.14 in 10.0 mi SSE 6.9 mph - N/A   Clear
7:53 PM 28.0 °F 20.8 °F 21.0 °F 75% 30.15 in 10.0 mi ESE 6.9 mph - N/A   Clear
8:53 PM 28.0 °F 20.0 °F 19.9 °F 72% 30.15 in 10.0 mi SSE 8.1 mph - N/A   Clear
9:53 PM 27.0 °F 21.6 °F 19.0 °F 72% 30.15 in 10.0 mi ESE 4.6 mph - N/A   Clear
10:53 PM 27.0 °F 18.7 °F 18.0 °F 69% 30.15 in 10.0 mi SE 8.1 mph - N/A   Clear
11:53 PM 26.1 °F 17.6 °F 18.0 °F 71% 30.14 in 10.0 mi SE 8.1 mph - N/A   Clear